Voltar ao catálogo

CAPELLA-14

ACADIA

AtivoCiênciaVLEO
NORAD 59444·PAYLOAD·🇺🇸 United States

Lançado Apr 7, 2024 de Cape Canaveral Space Force Station

Loading…

Próximas Passagens (próximas 24 horas)

TLE

AtualizadoSource: Space-Track

Época: Sep 14, 2026, 01:19 UTC

1 59444U 24066C   26257.05501212  .00009477  00000-0  65936-3 0  9991
2 59444  45.6025 149.7785 0001003 227.4513 132.6287 15.05815066125890

Acompanhe CAPELLA-14 em tempo real com AllMySat

Download on the App Store